Flag for Canada Weather past 2 weeks in Gander, Newfoundland and Labrador, Canada

Now
21 °F

Low clouds.


Feels Like: 12 °F
Forecast: 19 / 27 °F
Wind: 8 mph from Northeast

Location: Gander Int. Airport

Current Time: Jan 30, 2015 at 5:01:34 AM

Latest Report: Jan 30, 2015 at 4:30 AM


Visibility: 12 mi

Pressure: 30.14 "Hg

Humidity: 93%

Dew point: 19 °F

Location of GanderLocation

Historic Weather in Gander — Graph

°F

Gander temperature yesterday

Maximum temperature yesterday: 36 °F (at 4:30 AM)
Minimum temperature yesterday: 23 °F (at 11:30 PM)
Average temperature yesterday: 32 °F

Past Weeks' High & Low Weather Summary

 TemperatureHumidityPressure
High45 °F (Jan 25, 9:30 AM)100% (Jan 16, 3:30 AM)30.54 "Hg (Jan 16, 3:30 AM)
Low5 °F (Jan 18, 3:30 AM)50% (Jan 26, 1:30 PM)28.63 "Hg (Jan 25, 11:30 AM)
Average25 °F86%29.82 "Hg
* Reported Jan 15 3:30 AM — Jan 30 3:30 AM, Gander, Weather by CustomWeather, © 2014

Note: Actual official high and low records may vary slightly from our data, if they occured in-between our weather recording intervals... More about our weather records

Advertising

Gander weather history for previous 24 hours

 ConditionsComfort  
Time TempWeatherWind HumidityBarometerVisibility
3:30 AM
Jan 30
19 °FSnow flurries. Low clouds.9 mph93%30.16 "Hg12 mi
2:30 AM19 °FPassing clouds.8 mph93%30.19 "Hg15 mi
1:30 AM21 °FPartly cloudy.5 mph93%30.22 "Hg15 mi
12:30 AM21 °FLight mixture of precip. Ice fog.10 mph100%30.19 "Hg2 mi
11:30 PM
Jan 29
23 °FLight mixture of precip. Low clouds.14 mph93%30.20 "Hg6 mi
10:30 PM25 °FSnow flurries. Low clouds.12 mph93%30.21 "Hg15 mi
9:30 PM27 °FSnow flurries. Overcast.8 mph86%30.19 "Hg20 mi
8:30 PM27 °FPassing clouds.6 mph86%30.19 "Hg20 mi
7:30 PM27 °FPassing clouds.7 mph93%30.17 "Hg20 mi
6:30 PM28 °FPartly cloudy.8 mph93%30.14 "Hg20 mi
5:30 PM30 °FSnow flurries. Low clouds.8 mph86%30.12 "Hg20 mi
4:30 PM30 °FPartly cloudy.8 mph80%30.09 "Hg20 mi
3:30 PM30 °FPartly sunny.15 mph86%30.04 "Hg20 mi
2:30 PM32 °FPartly sunny.13 mph80%30.00 "Hg20 mi
1:30 PM34 °FBroken clouds.16 mph75%29.97 "Hg20 mi
12:30 PM34 °FBroken clouds.15 mph81%29.96 "Hg20 mi
11:30 AM34 °FPartly sunny.18 mph87%29.93 "Hg20 mi
10:30 AM36 °FPartly sunny.16 mph87%29.90 "Hg20 mi
9:30 AM36 °FPartly sunny.14 mph93%29.85 "Hg20 mi
9:16 AM36 °FPartly sunny.17 mph93%29.84 "Hg20 mi
8:30 AM36 °FScattered clouds.12 mph93%29.80 "Hg15 mi
7:30 AM36 °FPartly sunny.12 mph100%29.77 "Hg15 mi
6:30 AM36 °FPassing clouds.9 mph100%29.75 "Hg15 mi
5:30 AM36 °FFog.6 mph100%29.72 "Hg4 mi
Weather by CustomWeather, © 2014

See weather overviewHow to use our weather pages